Location: Chassagnes
(44.4047°N, 4.1657°E)
Time: 12:41:20
(UTC+00:00)

ERS-2 - Pass Details

Date: 27 October 2020
Orbit: 493 x 498 km, 98.6° (Epoch: 23 November)

Event Time Altitude Azimuth Distance (km) Brightness Sun altitude
Rises 17:54:22 0° 4° (N) 2,586 5.7 -14.0°
Reaches altitude 10° 17:56:34 10° 355° (N) 1,699 4.8 -14.3°
Maximum altitude 17:59:51 32° 291° (WNW) 861 3.9 -14.9°
Drops below altitude 10° 18:03:07 10° 227° (SW) 1,688 5.5 -15.5°
Sets 18:05:19 0° 217° (SW) 2,566 6.3 -15.9°
